Terminal Aerodrome Forecast
Issued by NWS

Home | Current Version | Previous Version | Text Only | Print | Product List | Glossary On
Versions: 1 2 3 4 5 6 7 8 9 10 11 12
000
FTUS45 KRIW 201100
TAFCPR
TAF
KCPR 201120Z 2012/2112 22016G26KT P6SM SCT110 BKN200
     FM210600 23026G34KT P6SM BKN100=

USA.gov is the U.S. government's official web portal to all federal, state and local government web resources and services.